�������l�o���
Date,Time,MP-1(��Sv/h),MP-2(��Sv/h),MP-3(��Sv/h),MP-4(��Sv/h),MP-5(��Sv/h),MP-6(��Sv/h),MP-7(��Sv/h),MP-8(��Sv/h),����,����(m/s),���J
2020/01/03,00:00,0.700,1.010,0.681,1.272,0.891,0.403,0.708,0.674,��,4.6,��
2020/01/03,00:10,0.700,1.011,0.681,1.274,0.890,0.403,0.709,0.674,��,3.0,��
2020/01/03,00:20,0.698,1.013,0.682,1.271,0.888,0.404,0.709,0.675,��,3.4,��
2020/01/03,00:30,0.702,1.010,0.682,1.274,0.890,0.403,0.708,0.674,���쐼,4.3,��
2020/01/03,00:40,0.700,1.011,0.683,1.274,0.890,0.402,0.710,0.674,��,4.7,��
2020/01/03,00:50,0.700,1.010,0.680,1.272,0.890,0.404,0.709,0.674,��,4.6,��
2020/01/03,01:00,0.700,1.010,0.682,1.275,0.890,0.406,0.710,0.674,��,4.9,��
2020/01/03,01:10,0.702,1.013,0.678,1.272,0.890,0.405,0.710,0.673,���쐼,6.0,��
2020/01/03,01:20,0.701,1.011,0.680,1.274,0.889,0.403,0.710,0.674,��,5.3,��
2020/01/03,01:30,0.701,1.011,0.680,1.273,0.889,0.404,0.709,0.674,��,5.0,��
2020/01/03,01:40,0.701,1.009,0.681,1.272,0.889,0.405,0.709,0.674,��,4.9,��
2020/01/03,01:50,0.699,1.011,0.681,1.273,0.890,0.404,0.707,0.675,��,6.9,��
2020/01/03,02:00,0.700,1.013,0.681,1.276,0.890,0.403,0.708,0.674,��,8.0,��
2020/01/03,02:10,0.701,1.011,0.679,1.273,0.890,0.404,0.709,0.675,���k��,7.4,��
2020/01/03,02:20,0.700,1.011,0.681,1.274,0.890,0.405,0.709,0.675,���k��,7.4,��
2020/01/03,02:30,0.701,1.011,0.680,1.275,0.890,0.404,0.708,0.675,���k��,6.1,��
2020/01/03,02:40,0.701,1.011,0.680,1.274,0.890,0.404,0.711,0.673,���k��,6.3,��
2020/01/03,02:50,0.700,1.011,0.681,1.274,0.890,0.403,0.712,0.672,���k��,6.6,��
2020/01/03,03:00,0.701,1.010,0.682,1.272,0.888,0.405,0.711,0.675,���k��,7.1,��
2020/01/03,03:10,0.702,1.010,0.683,1.275,0.888,0.404,0.709,0.675,���k��,7.4,��
2020/01/03,03:20,0.700,1.010,0.682,1.274,0.891,0.403,0.710,0.675,���k��,6.7,��
2020/01/03,03:30,0.701,1.010,0.682,1.275,0.889,0.405,0.709,0.675,���k��,5.8,��
2020/01/03,03:40,0.700,1.011,0.680,1.276,0.889,0.404,0.710,0.675,���k��,6.9,��
2020/01/03,03:50,0.701,1.012,0.683,1.274,0.889,0.404,0.710,0.675,���k��,6.7,��
2020/01/03,04:00,0.702,1.012,0.682,1.276,0.892,0.403,0.712,0.675,���k��,7.1,��
2020/01/03,04:10,0.701,1.012,0.681,1.275,0.889,0.404,0.712,0.675,�k��,8.2,��
2020/01/03,04:20,0.701,1.011,0.682,1.275,0.891,0.404,0.710,0.677,���k��,7.5,��
2020/01/03,04:30,0.701,1.011,0.683,1.274,0.888,0.405,0.711,0.674,���k��,8.5,��
2020/01/03,04:40,0.702,1.011,0.680,1.273,0.890,0.404,0.711,0.675,���k��,7.1,��
2020/01/03,04:50,0.700,1.010,0.682,1.275,0.892,0.403,0.712,0.675,���k��,6.9,��
2020/01/03,05:00,0.703,1.012,0.681,1.275,0.889,0.403,0.711,0.675,���k��,6.7,��
2020/01/03,05:10,0.701,1.011,0.681,1.275,0.890,0.404,0.711,0.677,�k��,7.8,��
2020/01/03,05:20,0.702,1.010,0.683,1.276,0.890,0.405,0.711,0.674,���k��,7.1,��
2020/01/03,05:30,0.703,1.012,0.681,1.273,0.890,0.403,0.713,0.675,���k��,5.6,��
2020/01/03,05:40,0.701,1.010,0.683,1.277,0.889,0.405,0.712,0.675,���k��,5.0,��
2020/01/03,05:50,0.702,1.013,0.681,1.275,0.890,0.404,0.711,0.676,�k��,6.0,��
2020/01/03,06:00,0.701,1.009,0.681,1.276,0.890,0.403,0.712,0.675,���k��,6.1,��
2020/01/03,06:10,0.701,1.011,0.682,1.274,0.889,0.405,0.710,0.675,�k��,5.8,��
2020/01/03,06:20,0.700,1.011,0.682,1.275,0.889,0.403,0.712,0.677,�k��,5.2,��
2020/01/03,06:30,0.702,1.011,0.684,1.276,0.891,0.404,0.711,0.675,�k��,4.6,��
2020/01/03,06:40,0.702,1.011,0.682,1.275,0.888,0.404,0.709,0.675,�k��,5.2,��
2020/01/03,06:50,0.703,1.013,0.682,1.275,0.889,0.403,0.711,0.675,�k��,4.1,��
2020/01/03,07:00,0.699,1.011,0.682,1.275,0.890,0.404,0.708,0.675,�k��,4.1,��
2020/01/03,07:10,0.703,1.010,0.681,1.273,0.891,0.405,0.711,0.674,�k��,3.9,��
2020/01/03,07:20,0.702,1.009,0.682,1.274,0.890,0.405,0.710,0.675,���k��,3.8,��
2020/01/03,07:30,0.702,1.013,0.681,1.274,0.890,0.404,0.710,0.675,�k��,3.4,��
2020/01/03,07:40,0.700,1.012,0.681,1.276,0.891,0.404,0.710,0.674,���k��,5.3,��
2020/01/03,07:50,0.702,1.012,0.683,1.275,0.891,0.404,0.710,0.675,���k��,4.7,��
2020/01/03,08:00,0.700,1.013,0.682,1.274,0.888,0.403,0.710,0.675,���k��,4.6,��
2020/01/03,08:10,0.701,1.012,0.681,1.274,0.890,0.405,0.711,0.675,���k��,4.7,��
2020/01/03,08:20,0.701,1.013,0.681,1.274,0.890,0.405,0.711,0.675,���k��,5.0,��
2020/01/03,08:30,0.701,1.011,0.683,1.275,0.891,0.404,0.709,0.675,���k��,4.7,��
2020/01/03,08:40,0.702,1.012,0.681,1.276,0.890,0.403,0.713,0.675,���k��,4.3,��
2020/01/03,08:50,0.701,1.012,0.682,1.275,0.890,0.404,0.712,0.673,�k��,3.8,��
2020/01/03,09:00,0.703,1.012,0.682,1.276,0.890,0.405,0.710,0.675,�k��,2.3,��
2020/01/03,09:10,0.703,1.013,0.684,1.275,0.890,0.403,0.712,0.676,�k��,2.1,��
2020/01/03,09:20,0.700,1.014,0.682,1.277,0.892,0.403,0.711,0.675,���k��,2.3,��
2020/01/03,09:30,0.701,1.011,0.684,1.276,0.891,0.403,0.712,0.675,��,2.3,��
2020/01/03,09:40,0.702,1.014,0.683,1.277,0.893,0.404,0.712,0.675,��,2.4,��
2020/01/03,09:50,0.701,1.012,0.683,1.275,0.890,0.404,0.711,0.674,���k��,1.7,��
2020/01/03,10:00,0.702,1.013,0.683,1.277,0.891,0.404,0.711,0.675,���쐼,1.2,��
2020/01/03,10:10,0.702,1.012,0.682,1.277,0.893,0.404,0.711,0.675,���쐼,1.4,��
2020/01/03,10:20,0.703,1.015,0.684,1.277,0.893,0.405,0.712,0.675,�쐼,1.6,��
2020/01/03,10:30,0.704,1.012,0.683,1.277,0.893,0.405,0.712,0.674,��쐼,3.0,��
2020/01/03,10:40,0.704,1.015,0.683,1.278,0.894,0.405,0.712,0.675,��쐼,3.3,��
2020/01/03,10:50,0.704,1.013,0.682,1.277,0.892,0.405,0.712,0.677,��쐼,3.1,��
2020/01/03,11:00,0.704,1.014,0.684,1.280,0.892,0.406,0.710,0.676,��쐼,2.5,��
2020/01/03,11:10,0.704,1.014,0.683,1.274,0.891,0.404,0.709,0.676,��쐼,3.1,��
2020/01/03,11:20,0.706,1.013,0.683,1.277,0.892,0.405,0.713,0.676,��,4.2,��
2020/01/03,11:30,0.705,1.013,0.683,1.277,0.894,0.406,0.712,0.676,��,5.2,��
2020/01/03,11:40,0.707,1.013,0.685,1.277,0.893,0.406,0.710,0.675,��,4.9,��
2020/01/03,11:50,0.706,1.013,0.686,1.277,0.894,0.404,0.712,0.675,��쓌,4.7,��
2020/01/03,12:00,0.705,1.014,0.683,1.276,0.895,0.405,0.713,0.676,��,4.9,��
2020/01/03,12:10,0.707,1.015,0.686,1.278,0.896,0.404,0.711,0.675,��쓌,5.3,��
2020/01/03,12:20,0.705,1.014,0.684,1.277,0.896,0.405,0.711,0.676,��쓌,4.9,��
2020/01/03,12:30,0.708,1.015,0.685,1.277,0.892,0.405,0.710,0.677,��,3.5,��
2020/01/03,12:40,0.705,1.016,0.684,1.278,0.894,0.405,0.711,0.677,�쐼,3.4,��
2020/01/03,12:50,0.707,1.015,0.683,1.278,0.895,0.405,0.711,0.675,�쐼,3.4,��
2020/01/03,13:00,0.707,1.013,0.684,1.280,0.896,0.407,0.711,0.675,�쐼,4.5,��
2020/01/03,13:10,0.707,1.015,0.685,1.278,0.897,0.407,0.712,0.674,�쐼,6.6,��
2020/01/03,13:20,0.707,1.015,0.686,1.279,0.894,0.406,0.712,0.676,���쐼,5.8,��
2020/01/03,13:30,0.707,1.012,0.685,1.280,0.896,0.406,0.711,0.675,���쐼,5.8,��
2020/01/03,13:40,0.707,1.015,0.684,1.279,0.896,0.409,0.712,0.676,��,5.2,��
2020/01/03,13:50,0.706,1.013,0.684,1.278,0.896,0.408,0.713,0.677,��,3.5,��
2020/01/03,14:00,0.708,1.015,0.687,1.279,0.896,0.408,0.712,0.677,���쐼,4.0,��
2020/01/03,14:10,0.706,1.017,0.688,1.279,0.897,0.407,0.712,0.677,���쐼,6.6,��
2020/01/03,14:20,0.708,1.018,0.686,1.279,0.897,0.407,0.712,0.678,���쐼,5.8,��
2020/01/03,14:30,0.709,1.015,0.687,1.280,0.895,0.408,0.710,0.676,���쐼,6.0,��
2020/01/03,14:40,0.710,1.015,0.684,1.278,0.896,0.408,0.712,0.678,��,6.4,��
2020/01/03,14:50,0.708,1.017,0.686,1.280,0.895,0.409,0.712,0.677,���쐼,6.6,��
2020/01/03,15:00,0.708,1.015,0.685,1.279,0.897,0.409,0.713,0.676,���쐼,6.7,��
2020/01/03,15:10,0.706,1.017,0.685,1.278,0.895,0.410,0.713,0.675,���쐼,5.5,��
2020/01/03,15:20,0.707,1.017,0.684,1.280,0.897,0.408,0.714,0.677,���쐼,5.8,��
2020/01/03,15:30,0.705,1.017,0.686,1.279,0.897,0.409,0.712,0.677,��,5.2,��
2020/01/03,15:40,0.705,1.016,0.686,1.281,0.897,0.409,0.714,0.677,���k��,4.6,��
2020/01/03,15:50,0.707,1.015,0.685,1.282,0.896,0.408,0.713,0.677,���쐼,2.3,��
2020/01/03,16:00,0.706,1.016,0.685,1.280,0.896,0.409,0.712,0.676,��,4.6,��
2020/01/03,16:10,0.706,1.015,0.685,1.279,0.895,0.410,0.714,0.677,��,5.5,��
2020/01/03,16:20,0.707,1.016,0.685,1.282,0.897,0.410,0.713,0.676,���k��,4.3,��
2020/01/03,16:30,0.706,1.016,0.684,1.280,0.895,0.409,0.713,0.678,��,3.8,��
2020/01/03,16:40,0.707,1.016,0.685,1.278,0.895,0.409,0.713,0.677,��,2.6,��
2020/01/03,16:50,0.707,1.014,0.685,1.275,0.895,0.410,0.713,0.676,���k��,4.1,��
2020/01/03,17:00,0.706,1.015,0.686,1.280,0.895,0.408,0.713,0.676,��,3.8,��
2020/01/03,17:10,0.705,1.014,0.683,1.279,0.893,0.408,0.711,0.679,���k��,4.1,��
2020/01/03,17:20,0.705,1.017,0.684,1.279,0.895,0.409,0.713,0.677,��,3.2,��
2020/01/03,17:30,0.707,1.016,0.684,1.278,0.893,0.409,0.711,0.676,��,2.0,��
2020/01/03,17:40,0.705,1.013,0.684,1.280,0.896,0.408,0.712,0.676,���쐼,2.6,��
2020/01/03,17:50,0.706,1.016,0.684,1.277,0.896,0.407,0.712,0.676,���쐼,3.1,��
2020/01/03,18:00,0.704,1.016,0.684,1.279,0.895,0.409,0.713,0.676,��,1.7,��
2020/01/03,18:10,0.706,1.015,0.686,1.279,0.894,0.409,0.713,0.677,�k,3.1,��
2020/01/03,18:20,0.705,1.015,0.685,1.278,0.894,0.407,0.711,0.678,�k�k��,3.5,��
2020/01/03,18:30,0.706,1.015,0.684,1.278,0.894,0.407,0.713,0.676,�k��,3.5,��
2020/01/03,18:40,0.705,1.014,0.684,1.278,0.895,0.406,0.713,0.675,�k�k��,3.6,��
2020/01/03,18:50,0.703,1.015,0.684,1.278,0.895,0.406,0.714,0.675,�k��,3.4,��
2020/01/03,19:00,0.704,1.014,0.684,1.279,0.894,0.407,0.712,0.675,���k��,3.5,��
2020/01/03,19:10,0.705,1.013,0.686,1.280,0.894,0.406,0.713,0.678,���k��,3.3,��
2020/01/03,19:20,0.707,1.015,0.683,1.278,0.894,0.406,0.712,0.677,���k��,3.3,��
2020/01/03,19:30,0.704,1.015,0.685,1.277,0.895,0.406,0.712,0.676,��,3.1,��
2020/01/03,19:40,0.704,1.015,0.684,1.277,0.893,0.407,0.711,0.676,��,2.7,��
2020/01/03,19:50,0.703,1.014,0.684,1.279,0.892,0.407,0.712,0.676,���k��,2.0,��
2020/01/03,20:00,0.703,1.013,0.685,1.278,0.893,0.406,0.712,0.675,�k��,2.8,��
2020/01/03,20:10,0.705,1.015,0.685,1.275,0.896,0.406,0.712,0.675,�k�k��,3.3,��
2020/01/03,20:20,0.704,1.015,0.683,1.278,0.896,0.406,0.714,0.676,�k��,4.1,��
2020/01/03,20:30,0.703,1.014,0.683,1.278,0.894,0.405,0.710,0.677,�k��,5.0,��
2020/01/03,20:40,0.704,1.015,0.683,1.278,0.893,0.406,0.712,0.676,�k��,4.5,��
2020/01/03,20:50,0.703,1.014,0.685,1.279,0.891,0.406,0.711,0.675,���k��,3.0,��
2020/01/03,21:00,0.704,1.013,0.683,1.276,0.894,0.407,0.712,0.676,��,3.4,��
2020/01/03,21:10,0.703,1.015,0.683,1.278,0.894,0.406,0.710,0.676,���쐼,2.8,��
2020/01/03,21:20,0.703,1.014,0.684,1.278,0.894,0.406,0.710,0.675,���쐼,4.4,��
2020/01/03,21:30,0.703,1.012,0.683,1.276,0.896,0.405,0.711,0.676,��,4.1,��
2020/01/03,21:40,0.705,1.015,0.684,1.278,0.895,0.405,0.710,0.674,��,4.9,��
2020/01/03,21:50,0.703,1.015,0.684,1.278,0.894,0.405,0.710,0.676,��,6.6,��
2020/01/03,22:00,0.704,1.015,0.683,1.278,0.894,0.407,0.711,0.676,��,7.7,��
2020/01/03,22:10,0.704,1.013,0.684,1.277,0.892,0.405,0.711,0.677,��,7.7,��
2020/01/03,22:20,0.703,1.013,0.683,1.279,0.894,0.405,0.711,0.675,��,6.9,��
2020/01/03,22:30,0.703,1.016,0.684,1.281,0.894,0.405,0.711,0.675,��,7.1,��
2020/01/03,22:40,0.703,1.014,0.683,1.277,0.893,0.404,0.712,0.674,��,6.7,��
2020/01/03,22:50,0.704,1.014,0.683,1.278,0.894,0.406,0.712,0.676,��,8.2,��
2020/01/03,23:00,0.704,1.012,0.684,1.280,0.893,0.405,0.713,0.676,��,7.4,��
2020/01/03,23:10,0.704,1.013,0.683,1.277,0.895,0.403,0.715,0.676,��,6.7,��
2020/01/03,23:20,0.703,1.013,0.684,1.279,0.893,0.405,0.712,0.676,��,7.4,��
2020/01/03,23:30,0.706,1.015,0.685,1.278,0.894,0.406,0.712,0.676,��,6.6,��
2020/01/03,23:40,0.705,1.013,0.683,1.279,0.893,0.406,0.713,0.676,���k��,6.9,��
2020/01/03,23:50,0.704,1.014,0.685,1.278,0.893,0.406,0.712,0.677,���k��,6.6,��
